TimeCST,TemperatureF,Dew PointF,Humidity,Sea Level PressureIn,VisibilityMPH,Wind Direction,Wind SpeedMPH,Gust SpeedMPH,PrecipitationIn,Events,Conditions,WindDirDegrees,DateUTC
1:53 AM,37.9,35.1,89,30.16,10.0,ENE,4.6,-,N/A,,Clear,70,2012-11-08 07:53:00
2:53 AM,42.1,35.1,76,30.16,10.0,ENE,5.8,-,N/A,,Clear,70,2012-11-08 08:53:00
3:53 AM,42.1,35.1,76,30.17,10.0,ENE,3.5,-,N/A,,Clear,70,2012-11-08 09:53:00
4:53 AM,42.1,35.1,76,30.18,10.0,NE,3.5,-,N/A,,Clear,50,2012-11-08 10:53:00
5:53 AM,42.1,35.1,76,30.18,10.0,East,3.5,-,N/A,,Clear,80,2012-11-08 11:53:00
6:53 AM,39.0,35.1,86,30.20,10.0,ENE,3.5,-,N/A,,Clear,70,2012-11-08 12:53:00
7:53 AM,46.0,37.9,73,30.23,10.0,East,4.6,-,N/A,,Clear,80,2012-11-08 13:53:00
8:53 AM,50.0,37.0,61,30.24,10.0,Variable,6.9,-,N/A,,Clear,0,2012-11-08 14:53:00
9:53 AM,55.0,35.1,47,30.23,10.0,ESE,6.9,-,N/A,,Clear,120,2012-11-08 15:53:00
10:53 AM,60.1,36.0,41,30.19,10.0,ESE,8.1,-,N/A,,Clear,110,2012-11-08 16:53:00
11:53 AM,64.0,37.0,37,30.16,10.0,SE,10.4,-,N/A,,Clear,130,2012-11-08 17:53:00
12:53 PM,66.9,37.0,33,30.11,10.0,ESE,11.5,19.6,N/A,,Clear,120,2012-11-08 18:53:00
1:53 PM,68.0,39.0,35,30.08,10.0,ESE,10.4,-,N/A,,Clear,120,2012-11-08 19:53:00
2:53 PM,69.1,39.0,33,30.06,10.0,SE,10.4,-,N/A,,Clear,130,2012-11-08 20:53:00
3:53 PM,69.1,39.9,35,30.05,10.0,ESE,11.5,-,N/A,,Clear,110,2012-11-08 21:53:00
4:53 PM,66.0,41.0,40,30.05,10.0,ESE,6.9,-,N/A,,Clear,120,2012-11-08 22:53:00
5:53 PM,60.1,41.0,49,30.05,10.0,ESE,5.8,-,N/A,,Clear,110,2012-11-08 23:53:00
6:53 PM,60.1,42.1,51,30.08,10.0,ESE,4.6,-,N/A,,Clear,110,2012-11-09 00:53:00
7:53 PM,57.9,42.1,56,30.08,10.0,East,4.6,-,N/A,,Clear,100,2012-11-09 01:53:00
8:53 PM,52.0,43.0,71,30.08,10.0,ENE,4.6,-,N/A,,Clear,60,2012-11-09 02:53:00
9:53 PM,51.1,43.0,74,30.08,10.0,ENE,4.6,-,N/A,,Clear,60,2012-11-09 03:53:00
10:53 PM,50.0,43.0,77,30.07,10.0,East,3.5,-,N/A,,Clear,80,2012-11-09 04:53:00
11:53 PM,48.9,43.0,80,30.07,10.0,ENE,3.5,-,N/A,,Clear,70,2012-11-09 05:53:00